Regional Weather Roundup
Issued by NWS

Home | Current Version | Previous Version | Graphics & Text | Print | Product List | Glossary On
Versions: 1 2 3 4 5 6 7 8 9 10 11 12 13 14 15 16 17 18 19 20 21 22 23 24 25 26 27 28 29 30 31 32 33 34 35 36 37 38 39 40 41 42 43 44 45 46 47 48 49 50
000
ASUS45 KPSR 031810
RWRAZ

ARIZONA REGIONAL HOURLY WEATHER ROUNDUP
NATIONAL WEATHER SERVICE PHOENIX AZ
1100 AM MST TUE MAR 03 2015

NOTE: FAIR INDICATES FEW OR NO CLOUDS BELOW 12,000 FEET WITH NO
SIGNIFICANT WEATHER AND/OR OBSTRUCTIONS TO VISIBILITY.

AZZ001>003-036-031900-
NORTHWEST ARIZONA

CITY           SKY/WX    TMP DP  RH WIND       PRES   REMARKS
BULLHEAD CITY  SUNNY     55  45  67 CALM      29.99S
KINGMAN        CLOUDY    48  35  60 VRB5      29.95R
6HR MIN TEMP:  30; 6HR MAX TEMP:  48;

$$

AZZ004>008-015-016-018-031900-
NORTH CENTRAL ARIZONA

CITY           SKY/WX    TMP DP  RH WIND       PRES   REMARKS
GRAND CANYON   PTSUNNY   29  26  89 W9        29.91R WCI  20
6HR MIN TEMP:  22; 6HR MAX TEMP:  30;

PRESCOTT       PTSUNNY   44  26  49 S8        29.92F
6HR MIN TEMP:  35; 6HR MAX TEMP:  45; 6HR PCP: TRACE;

FLAGSTAFF      NOT AVBL
PAYSON         CLOUDY    39  36  87 VRB3      29.95F
PAGE           PTSUNNY   44  30  57 CALM      29.87F
6HR MIN TEMP:  36; 6HR MAX TEMP:  44; 6HR PCP: TRACE;

$$

AZZ009>014-017-031900-
NORTHEAST ARIZONA

CITY           SKY/WX    TMP DP  RH WIND       PRES   REMARKS
WINSLOW        CLOUDY    45  30  55 S8        29.92F
6HR MIN TEMP:  32; 6HR MAX TEMP:  46;

SAINT JOHNS    MOSUNNY   42  26  53 SW7       29.90F
WINDOW ROCK    CLOUDY    39  30  70 S10       29.89S WCI  32
6HR MIN TEMP:  29; 6HR MAX TEMP:  40;

SHOW LOW       PTSUNNY   36  27  69 SW8       29.97R WCI  29
$$

AZZ023-031900-
GREATER PHOENIX AREA

CITY           SKY/WX    TMP DP  RH WIND       PRES   REMARKS
PHOENIX        MOSUNNY   59  44  57 E6        29.93S
6HR MIN TEMP:  47; 6HR MAX TEMP:  60;

BUCKEYE        PTSUNNY   57  50  77 SE5       29.96S
GLENDALE       PTSUNNY   59  46  63 VRB3      29.96R
LUKE AFB       MOSUNNY   58  46  64 VRB2      29.94R
6HR MIN TEMP:  45; 6HR MAX TEMP:  58;

DEER VALLEY    MOSUNNY   58  44  60 S6        29.93R
6HR MIN TEMP:  45; 6HR MAX TEMP:  58;

SCOTTSDALE     SUNNY     58  43  57 CALM      29.96S
6HR MIN TEMP:  47; 6HR MAX TEMP:  58;

MESA-FALCON    MOSUNNY   57  43  58 NE9       29.93F
MESA-GATEWAY   MOSUNNY   55  48  76 CALM      29.96F
CHANDLER       MOSUNNY   57  48  72 SE5       29.95
$$

AZZ027-028-031900-
SOUTHWEST MARICOPA COUNTY AND PINAL COUNTY

CITY           SKY/WX    TMP DP  RH WIND       PRES   REMARKS
CASA GRANDE    CLOUDY    48  46  93 SE5       29.96F
6HR MIN TEMP:  39; 6HR MAX TEMP:  48;

GILA BEND      PTSUNNY   60  50  69 NW3       29.94S
6HR MIN TEMP:  47; 6HR MAX TEMP:  60;

$$

AZZ503-504-507>509-031900-
SOUTHEAST ARIZONA

CITY           SKY/WX    TMP DP  RH WIND       PRES   REMARKS
TUCSON         MOSUNNY   57  39  51 SE5       29.95F
6HR MIN TEMP:  46; 6HR MAX TEMP:  57;

DAVIS-MONTHAN  MOSUNNY   54  40  57 SW6       29.93F
6HR MIN TEMP:  44; 6HR MAX TEMP:  54;

RYAN FIELD       N/A     55  45  67 NE3       29.96S
NOGALES        SUNNY     55  31  39 VRB6      29.93F
6HR MIN TEMP:  41; 6HR MAX TEMP:  56;

SIERRA VISTA   MOSUNNY   54  30  40 VRB5      29.93S
                                      6HR PCP: TRACE;

DOUGLAS        PTSUNNY   52  44  74 CALM      29.93F
6HR MIN TEMP:  44; 6HR MAX TEMP:  53; 6HR PCP:  0.09;

SAFFORD        SUNNY     53  39  59 SW3       29.92F
6HR MIN TEMP:  40; 6HR MAX TEMP:  54;

$$

AZZ020-021-025-026-031-031900-
SOUTHWEST ARIZONA

CITY           SKY/WX    TMP DP  RH WIND       PRES   REMARKS
YUMA           MOSUNNY   61  40  45 CALM      29.95F
6HR MIN TEMP:  50; 6HR MAX TEMP:  63;

$$

CAZ031-033-041-043-047-048-061-031900-
SOUTHERN CALIFORNIA

CITY           SKY/WX    TMP DP  RH WIND       PRES   REMARKS
DOWNTOWN L.A.  SUNNY     61  41  47 CALM      29.96F
6HR MIN TEMP:  48; 6HR MAX TEMP:  61;

L.A. AIRPORT   MOSUNNY   59  41  51 VRB5      29.97F
6HR MIN TEMP:  47; 6HR MAX TEMP:  59;

SAN DIEGO      MOSUNNY   61  42  49 CALM      29.97S
6HR MIN TEMP:  52; 6HR MAX TEMP:  62;

BURBANK        SUNNY     55  40  56 CALM      29.96F
6HR MIN TEMP:  43; 6HR MAX TEMP:  56;

ONTARIO        MOSUNNY   54  38  54 CALM      29.96F
6HR MIN TEMP:  42; 6HR MAX TEMP:  54;

RIVERSIDE      SUNNY     56  40  55 CALM      29.96F
6HR MIN TEMP:  40; 6HR MAX TEMP:  56;

PALM SPRINGS   MOSUNNY   60  38  43 E3        29.97F
6HR MIN TEMP:  44; 6HR MAX TEMP:  60;

EL CENTRO NAS  MOSUNNY   59  43  55 N5        29.96F
6HR MIN TEMP:  42; 6HR MAX TEMP:  60;

IMPERIAL       SUNNY     59  45  59 N5        29.96S
6HR MIN TEMP:  44; 6HR MAX TEMP:  59;

BLYTHE         SUNNY     56  45  66 CALM      29.97R
6HR MIN TEMP:  43; 6HR MAX TEMP:  56;

NEEDLES        SUNNY     58  43  57 E3        29.97R
6HR MIN TEMP:  45; 6HR MAX TEMP:  58;

$$

NVZ020-UTZ003-031900-
SOUTHERN NEVADA-UTAH

CITY           SKY/WX    TMP DP  RH WIND       PRES   REMARKS
LAS VEGAS      MOSUNNY   53  35  50 CALM      29.90F
6HR MIN TEMP:  41; 6HR MAX TEMP:  53;

SALT LAKE CITY LGT SNOW  31  29  92 N6        29.87R VSB 1   WCI  25
6HR MIN TEMP:  30; 6HR MAX TEMP:  37; 6HR PCP:  0.17;

$$

NMZ009-TXZ055-031900-
NEW MEXICO-WEST TEXAS

CITY           SKY/WX    TMP DP  RH WIND       PRES   REMARKS
ALBUQUERQUE    PTSUNNY   45  28  51 CALM      29.90F
6HR MIN TEMP:  40; 6HR MAX TEMP:  45;

EL PASO        LGT RAIN  53  49  86 NE5       29.93R
6HR MIN TEMP:  52; 6HR MAX TEMP:  56; 6HR PCP:  0.04;

$$


........................KEY........................
SKY/WX - SKY CONDITION/WEATHER
TMP    - TEMPERATURE IN FAHRENHEIT
DP     - DEW POINT IN FAHRENHEIT
RH     - RELATIVE HUMIDITY IN PERCENT
WIND   - DIRECTION AND SPEED IN MILES PER HOUR (MPH)
VRB    - VARIABLE WIND DIRECTION
PRES   - MEAN SEA LEVEL PRESSURE IN INCHES OF MERCURY
         F - FALLING PRESSURE   R - RISING PRESSURE
         S - STEADY PRESSURE
VSB    - VISIBILITY IN MILES
HX     - HEAT INDEX IN FAHRENHEIT
WCI    - WIND CHILL INDEX IN FAHRENHEIT
TC     - TEMPERATURE IN CELSIUS WHICH IS ALSO KNOWN AS
         TEMPERATURE IN CENTIGRADE
AFB    - AIR FORCE BASE
         LUKE AFB IS LUKE AIR FORCE BASE
         DAVIS-MONTHAN IS DAVIS-MONTHAN AIR FORCE BASE
NAS    - NAVAL AIR STATION
         EL CENTRO NAS IS EL CENTRO NAVAL AIR STATION
N/A    - NOT AVAILABLE



USA.gov is the U.S. government's official web portal to all federal, state and local government web resources and services.